Location: Canet
(43.3261°N, 5.3723°E)
Time: 17:57:10
(UTC+00:00)

Tiangong - Visible Passes

Search period start: 24 September 2021 00:00
Search period end: 04 October 2021 00:00
Orbit: 382 x 385 km, 41.5° (Epoch: 24 September)

Date Brightness Start Highest point End Pass type
(mag) Time Alt. Az. Time Alt. Az. Time Alt. Az.
25 Sep 3.3 04:58:41 10° SSW 05:01:05 20° SSE 05:03:31 10° ESE visible
26 Sep 3.7 03:59:56 10° S 04:01:24 13° SSE 04:02:57 10° ESE visible
27 Sep 2.6 04:35:19 11° SW 04:37:55 30° SSE 04:40:44 10° E visible
28 Sep 3.2 03:38:24 20° SSE 03:38:24 20° SSE 03:40:34 10° ESE visible
29 Sep 1.9 04:13:38 29° SW 04:14:46 41° SSE 04:17:46 10° E visible
30 Sep 3.7 03:16:37 18° ESE 03:16:37 18° ESE 03:17:45 10° E visible
30 Sep 1.3 04:48:49 13° WSW 04:51:30 61° S 04:54:38 10° E visible
01 Oct 1.5 03:51:47 52° SSE 03:51:47 52° SSE 03:54:43 10° E visible
02 Oct 4.6 02:54:44 10° E 02:54:44 10° E 02:54:44 10° E visible
02 Oct 1.2 04:26:55 28° WSW 04:28:23 62° S 04:31:31 10° E visible
03 Oct 3.0 03:29:53 28° ESE 03:29:53 28° ESE 03:31:35 10° E visible
03 Oct 1.7 05:02:05 10° W 05:05:07 44° SSW 05:08:09 10° ESE visible
